Regional Weather Roundup
Issued by NWS

Home | Current Version | Previous Version | Graphics & Text | Print | Product List | Glossary On
Versions: 1 2 3 4 5 6 7 8 9 10 11 12 13 14 15 16 17 18 19 20 21 22 23 24 25 26 27 28
000
ASUS45 KTFX 180110
RWRMT
MONTANA REGIONAL WEATHER ROUNDUP
NATIONAL WEATHER SERVICE GREAT FALLS MT
700 PM MDT TUE OCT 17 2017

NOTE: "FAIR" INDICATES FEW OR NO CLOUDS BELOW 12000 FEET WITH NO
SIGNIFICANT WEATHER AND/OR OBSTRUCTIONS TO VISIBILITY.

MTZ001>007-043-180200-
WEST OF THE DIVIDE

CITY           SKY/WX    TMP DP  RH WIND       PRES   REMARKS
KALISPELL      MOCLDY    61  31  32 W22G39    29.70R
MISSOULA       CLOUDY    63  28  26 W32G59    29.87R
BUTTE          CLOUDY    61  16  17 W13G18    29.93R
MULLAN PASS    LGT RAIN  42  33  70 W13G35    29.92S
ANACONDA         N/A     59  16  18 SW10      29.88S
DEER LODGE       N/A     63  19  19 SW18G31   29.86R
HAMILTON         N/A     66  23  19 W22G33    29.89S
LIBBY            N/A     61  32  33 SW5       29.77R
PLAINS           N/A     63  35  35 SW9       29.85R
$$

MTZ008-052>055-180200-
SOUTHWEST MONTANA

CITY           SKY/WX    TMP DP  RH WIND       PRES   REMARKS
BOZEMAN        CLOUDY    62  19  19 S12       29.86F
DILLON         CLOUDY    56  21  25 SW15      29.93F
W YELLOWSTONE  CLOUDY    48  16  27 E8        30.11F
ENNIS          CLOUDY    57  16  19 S24       30.00F
THREE FORKS      N/A     64  18  17 SW17      29.86S
TWIN BRIDGES     N/A     60  20  21 CALM      29.92F
$$

MTZ009-010-012-014-046-048-049-054-180200-
EAST SLOPES AND CENTRAL MONTANA

CITY           SKY/WX    TMP DP  RH WIND       PRES   REMARKS
CUT BANK       CLEAR     60  23  24 SW41G60   29.56R
GREAT FALLS    CLEAR     66  20  17 SW33G54   29.65R
MALMSTROM AFB  CLEAR     67  20  17 SW30G40   29.66R
HELENA         CLOUDY    66  19  16 W14       29.77R
BOWMANS CRNR     N/A     60  20  21 SW43G51   29.69R
CHOTEAU          N/A     63  21  20 SW25G38   29.66R
FAIRFIELD        N/A     62  21  20 SW35G44   29.65R
POWER            N/A     62  21  20 SW29G40   29.63R
RAYNESFORD       N/A     67  16  14 SW28G37   29.68R
ULM              N/A     66  20  17 W25G44    29.69R
$$

MTZ011-013-016-021-045-047-050-051-180200-
NORTH CENTRAL MONTANA

CITY           SKY/WX    TMP DP  RH WIND       PRES   REMARKS
HAVRE          CLEAR     69  24  18 SW33G41   29.45F
LEWISTOWN      CLOUDY    63  21  20 SW20      29.68F
N BAR RANCH      N/A     66  14  13 SW10G31   29.72F
CHINOOK          N/A     73  23  15 SW31G43   29.43F
DENTON           N/A     65  20  18 SW15      29.59F
GEYSER           N/A     68  16  14 W32G46    29.65R
GRASS RANGE      N/A     69  17  14 SW21G28   29.60F
JUDITH GAP       N/A     64  18  16 SW28G33   29.73F
WINIFRED         N/A     66  21  17 SW20      29.61F
$$

MTZ017>020-022>027-061-062-180200-
NORTHEAST MONTANA

CITY           SKY/WX    TMP DP  RH WIND       PRES   REMARKS
GLASGOW        CLOUDY    69  23  17 SW13      29.51F
JORDAN           N/A     67  23  19 SW14      29.60F
SIDNEY         CLOUDY    63  27  25 SW9       29.59F
WOLF POINT     CLEAR     65  25  22 S12       29.53F
MALTA          CLEAR     59  27  29 SW5       29.48F
PLENTYWOOD       N/A     68  25  19 SW13      29.50F
POPLAR           N/A     70  25  18 S13       29.53F
$$

MTZ028>42-056>058-180200-
SOUTHCENTRAL AND SOUTHEAST MONTANA

CITY           SKY/WX    TMP DP  RH WIND       PRES   REMARKS
BAKER          CLOUDY    64  23  21 SW14      29.75F
BILLINGS       PTCLDY    64  24  21 SW14      29.76F
LIVINGSTON     CLOUDY    66  15  14 SW46G59   29.79F
MILES CITY     CLOUDY    64  26  23 S9        29.69F
BIG TIMBER     CLEAR     66  14  13 W20G28    29.84R
FORSYTH          N/A     70  21  16 S8        29.69F
HARLOWTON        N/A     66  15  14 MISG      29.74S
LAUREL           N/A     63  23  22 SW12G20   29.78F
$$

REGIONAL REPORTS...DAKOTAS

CITY           SKY/WX    TMP DP  RH WIND       PRES   REMARKS
WILLISTON      CLOUDY    63  27  25 S7        29.57F
MINOT          CLEAR     66  28  24 S13       29.57F
DICKINSON      CLOUDY    55  25  31 SW14      29.69F
BEACH            N/A     57  23  26 SW10      29.72F
CROSBY           N/A     61  25  25 SW14      29.51F
TIOGA            N/A     61  27  27 SW15      29.58F
WATFORD CITY     N/A     64  25  22 SW12      29.60F
BISMARCK       CLEAR     64  27  24 S6        29.70F
GRAND FORKS    CLEAR     57  34  41 S9        29.64F
FARGO          CLEAR     67  42  40 S13       29.72F
BUFFALO SD       N/A     60  20  21 W9        29.74F
RAPID CITY     CLOUDY    52  27  38 NW8       29.85R
$$

REGIONAL REPORTS...WYOMING/IDAHO/WASHINGTON

CITY           SKY/WX    TMP DP  RH WIND       PRES   REMARKS
GILLETTE       CLOUDY    59  20  22 S8        29.87F
SHERIDAN       CLOUDY    61  24  24 VRB6      29.82F
BUFFALO WY     CLOUDY    59  15  18 W12       29.90F
CODY           CLOUDY    63  18  17 SW5       29.95S
IDAHO FALLS    CLOUDY    58  31  35 S10       30.08S
SALMON         CLOUDY    48  32  53 VRB3      29.95F
BOISE          MOCLDY    59  34  39 W7        30.06R HAZE
SPOKANE        CLOUDY    54  27  35 W22       29.95R
$$

REGIONAL REPORTS...ALBERTA

CITY           SKY/WX    TMP DP  RH WIND       PRES   REMARKS
EDMONTON       MOCLDY    45  37  76 W21G33    29.34R
CALGARY        LGT RAIN  37  34  87 NW21G26   29.52R WCI  27
LETHBRIDGE     PTCLDY    54  34  47 W54G67    29.46R
MEDICINE HAT   PTCLDY    68  25  19 MISG      29.25R
$$

REGIONAL REPORTS...SASKATCHEWAN

CITY           SKY/WX    TMP DP  RH WIND       PRES   REMARKS
SWIFT CURRENT  PTCLDY    66  21  18 SW31G40   29.29F
REGINA         PTCLDY    61  21  21 S14       29.32F
SASKATOON      MOCLDY    68  21  17 S21G26    29.10F
$$




USA.gov is the U.S. government's official web portal to all federal, state and local government web resources and services.